Time,TemperatureF,DewpointF,PressureIn,WindDirection,WindDirectionDegrees,WindSpeedMPH,WindSpeedGustMPH,Humidity,HourlyPrecipIn,Conditions,Clouds,dailyrainin,SoftwareType,DateUTC
2013-03-09 00:02:00,33.4,28.2,30.08,ESE,112,0.0,-999.0,81,-99.99,,,0.00,Acu-Link.com,2013-03-09 05:02:00,
2013-03-09 00:17:00,33.1,27.9,30.09,ESE,112,0.0,-999.0,81,-99.99,,,0.00,Acu-Link.com,2013-03-09 05:17:00,
2013-03-09 00:32:00,32.4,27.8,30.08,East,90,1.7,-999.0,83,-99.99,,,0.00,Acu-Link.com,2013-03-09 05:32:00,
2013-03-09 00:47:00,32.4,27.8,30.09,East,90,0.0,-999.0,83,-99.99,,,0.00,Acu-Link.com,2013-03-09 05:47:00,
2013-03-09 01:03:00,32.0,27.4,30.08,ENE,67,0.0,-999.0,83,-99.99,,,0.00,Acu-Link.com,2013-03-09 06:03:00,
2013-03-09 01:18:00,31.6,27.3,30.09,East,90,0.0,-999.0,84,-99.99,,,0.00,Acu-Link.com,2013-03-09 06:18:00,
2013-03-09 01:33:00,31.1,27.1,30.08,ENE,67,1.1,-999.0,85,-99.99,,,0.00,Acu-Link.com,2013-03-09 06:33:00,
2013-03-09 01:49:00,30.7,26.7,30.08,East,90,0.0,-999.0,85,-99.99,,,0.00,Acu-Link.com,2013-03-09 06:49:00,
2013-03-09 02:04:00,30.4,26.7,30.08,NE,45,0.0,-999.0,86,-99.99,,,0.00,Acu-Link.com,2013-03-09 07:04:00,
2013-03-09 02:19:00,30.4,26.4,30.07,ESE,112,0.0,-999.0,85,-99.99,,,0.00,Acu-Link.com,2013-03-09 07:19:00,
2013-03-09 02:35:00,29.5,25.8,30.06,ENE,67,0.0,-999.0,86,-99.99,,,0.00,Acu-Link.com,2013-03-09 07:35:00,
2013-03-09 02:50:00,29.3,25.9,30.05,ESE,112,0.0,-999.0,87,-99.99,,,0.00,Acu-Link.com,2013-03-09 07:50:00,
2013-03-09 03:05:00,29.3,26.5,30.05,ENE,67,1.1,-999.0,89,-99.99,,,0.00,Acu-Link.com,2013-03-09 08:05:00,
2013-03-09 03:21:00,29.3,26.2,30.05,ENE,67,0.0,-999.0,88,-99.99,,,0.00,Acu-Link.com,2013-03-09 08:21:00,
2013-03-09 03:36:00,29.1,26.3,30.05,East,90,0.0,-999.0,89,-99.99,,,0.00,Acu-Link.com,2013-03-09 08:36:00,
2013-03-09 03:51:00,28.8,26.0,30.04,East,90,0.0,-999.0,89,-99.99,,,0.00,Acu-Link.com,2013-03-09 08:51:00,
2013-03-09 04:06:00,28.6,25.8,30.05,NE,45,0.0,-999.0,89,-99.99,,,0.00,Acu-Link.com,2013-03-09 09:06:00,
2013-03-09 04:21:00,28.8,26.2,30.05,East,90,0.0,-999.0,90,-99.99,,,0.00,Acu-Link.com,2013-03-09 09:21:00,
2013-03-09 04:36:00,28.2,25.9,30.04,ESE,112,0.0,-999.0,91,-99.99,,,0.00,Acu-Link.com,2013-03-09 09:36:00,
2013-03-09 04:52:00,28.2,27.7,30.04,ENE,67,1.7,-999.0,98,-99.99,,,0.00,Acu-Link.com,2013-03-09 09:52:00,
2013-03-09 05:07:00,28.0,27.5,30.03,NNE,22,0.0,-999.0,98,-99.99,,,0.00,Acu-Link.com,2013-03-09 10:07:00,
2013-03-09 05:22:00,27.7,27.2,30.04,NE,45,0.0,-999.0,98,-99.99,,,0.00,Acu-Link.com,2013-03-09 10:22:00,
2013-03-09 05:38:00,27.5,27.0,30.04,South,180,0.0,-999.0,98,-99.99,,,0.00,Acu-Link.com,2013-03-09 10:38:00,
2013-03-09 05:53:00,27.1,26.6,30.06,NE,45,1.1,-999.0,98,-99.99,,,0.00,Acu-Link.com,2013-03-09 10:53:00,
2013-03-09 06:08:00,27.5,27.0,30.07,East,90,1.7,-999.0,98,-99.99,,,0.00,Acu-Link.com,2013-03-09 11:08:00,
2013-03-09 06:23:00,27.0,26.5,30.07,ESE,112,0.0,-999.0,98,-99.99,,,0.00,Acu-Link.com,2013-03-09 11:23:00,
2013-03-09 06:39:00,27.1,26.6,30.08,East,90,1.1,-999.0,98,-99.99,,,0.00,Acu-Link.com,2013-03-09 11:39:00,
2013-03-09 06:54:00,27.3,26.8,30.07,ESE,112,0.0,-999.0,98,-99.99,,,0.00,Acu-Link.com,2013-03-09 11:54:00,
2013-03-09 07:09:00,27.7,27.2,30.07,NNW,337,2.2,-999.0,98,-99.99,,,0.00,Acu-Link.com,2013-03-09 12:09:00,
2013-03-09 07:24:00,28.4,27.9,30.07,WNW,292,0.0,-999.0,98,-99.99,,,0.00,Acu-Link.com,2013-03-09 12:24:00,
2013-03-09 07:39:00,29.8,28.0,30.09,SE,135,0.0,-999.0,93,-99.99,,,0.00,Acu-Link.com,2013-03-09 12:39:00,
2013-03-09 07:55:00,31.6,28.7,30.08,East,90,0.0,-999.0,89,-99.99,,,0.00,Acu-Link.com,2013-03-09 12:55:00,
2013-03-09 08:10:00,32.4,29.3,30.09,WNW,292,0.0,-999.0,88,-99.99,,,0.00,Acu-Link.com,2013-03-09 13:10:00,
2013-03-09 08:25:00,33.6,29.9,30.09,South,180,0.0,-999.0,86,-99.99,,,0.00,Acu-Link.com,2013-03-09 13:25:00,
2013-03-09 08:41:00,35.1,29.3,30.09,NE,45,3.7,-999.0,79,-99.99,,,0.00,Acu-Link.com,2013-03-09 13:41:00,
2013-03-09 08:56:00,37.8,30.3,30.08,SSW,202,2.2,-999.0,74,-99.99,,,0.00,Acu-Link.com,2013-03-09 13:56:00,
2013-03-09 09:11:00,41.2,30.0,30.09,NNE,22,4.2,-999.0,64,-99.99,,,0.00,Acu-Link.com,2013-03-09 14:11:00,
2013-03-09 09:26:00,43.0,30.5,30.09,North,0,5.8,-999.0,61,-99.99,,,0.00,Acu-Link.com,2013-03-09 14:26:00,
2013-03-09 09:41:00,44.4,30.1,30.09,ENE,67,4.2,-999.0,57,-99.99,,,0.00,Acu-Link.com,2013-03-09 14:41:00,
2013-03-09 09:56:00,45.3,31.0,30.09,NE,45,2.7,-999.0,57,-99.99,,,0.00,Acu-Link.com,2013-03-09 14:56:00,
2013-03-09 10:12:00,45.3,30.1,30.09,SE,135,2.7,-999.0,55,-99.99,,,0.00,Acu-Link.com,2013-03-09 15:12:00,
2013-03-09 10:27:00,48.0,31.2,30.07,NE,45,4.2,-999.0,52,-99.99,,,0.00,Acu-Link.com,2013-03-09 15:27:00,
2013-03-09 10:42:00,48.6,30.8,30.07,East,90,2.2,-999.0,50,-99.99,,,0.00,Acu-Link.com,2013-03-09 15:42:00,
2013-03-09 10:57:00,50.5,31.6,30.08,ESE,112,1.7,-999.0,48,-99.99,,,0.00,Acu-Link.com,2013-03-09 15:57:00,
2013-03-09 11:12:00,55.0,31.7,30.08,South,180,4.2,-999.0,41,-99.99,,,0.00,Acu-Link.com,2013-03-09 16:12:00,
2013-03-09 11:28:00,60.3,31.8,30.07,NNE,22,1.1,-999.0,34,-99.99,,,0.00,Acu-Link.com,2013-03-09 16:28:00,
2013-03-09 11:43:00,63.1,29.5,30.07,WNW,292,2.2,-999.0,28,-99.99,,,0.00,Acu-Link.com,2013-03-09 16:43:00,
2013-03-09 11:58:00,65.7,30.8,30.07,West,270,5.3,-999.0,27,-99.99,,,0.00,Acu-Link.com,2013-03-09 16:58:00,
2013-03-09 12:13:00,63.5,31.5,30.06,SSW,202,2.7,-999.0,30,-99.99,,,0.00,Acu-Link.com,2013-03-09 17:13:00,
2013-03-09 12:29:00,65.5,29.7,30.05,WSW,247,5.3,-999.0,26,-99.99,,,0.00,Acu-Link.com,2013-03-09 17:29:00,
2013-03-09 12:44:00,64.6,29.9,30.05,South,180,2.2,-999.0,27,-99.99,,,0.00,Acu-Link.com,2013-03-09 17:44:00,
2013-03-09 12:59:00,65.3,26.6,30.04,SW,225,3.7,-999.0,23,-99.99,,,0.00,Acu-Link.com,2013-03-09 17:59:00,
2013-03-09 13:15:00,67.8,25.3,30.03,West,270,2.2,-999.0,20,-99.99,,,0.00,Acu-Link.com,2013-03-09 18:15:00,
2013-03-09 13:30:00,64.6,28.9,30.02,WSW,247,2.7,-999.0,26,-99.99,,,0.00,Acu-Link.com,2013-03-09 18:30:00,
2013-03-09 13:45:00,68.9,24.9,30.01,SSW,202,3.7,-999.0,19,-99.99,,,0.00,Acu-Link.com,2013-03-09 18:45:00,
2013-03-09 14:00:00,65.8,28.0,29.99,SSE,157,4.7,-999.0,24,-99.99,,,0.00,Acu-Link.com,2013-03-09 19:00:00,
2013-03-09 14:15:00,69.6,25.5,29.99,West,270,2.7,-999.0,19,-99.99,,,0.00,Acu-Link.com,2013-03-09 19:15:00,
2013-03-09 14:30:00,72.5,22.2,29.98,NNE,22,3.2,-999.0,15,-99.99,,,0.00,Acu-Link.com,2013-03-09 19:30:00,
2013-03-09 14:46:00,72.3,22.1,29.97,NW,315,4.7,-999.0,15,-99.99,,,0.00,Acu-Link.com,2013-03-09 19:46:00,
2013-03-09 15:01:00,69.3,27.7,29.97,SE,135,3.7,-999.0,21,-99.99,,,0.00,Acu-Link.com,2013-03-09 20:01:00,
2013-03-09 15:16:00,71.1,22.6,29.97,SSW,202,4.7,-999.0,16,-99.99,,,0.00,Acu-Link.com,2013-03-09 20:16:00,
2013-03-09 15:32:00,68.4,28.1,29.96,SSE,157,3.2,-999.0,22,-99.99,,,0.00,Acu-Link.com,2013-03-09 20:32:00,
2013-03-09 15:47:00,67.6,29.5,29.96,WSW,247,1.1,-999.0,24,-99.99,,,0.00,Acu-Link.com,2013-03-09 20:47:00,
2013-03-09 16:02:00,65.1,29.4,29.96,SW,225,3.2,-999.0,26,-99.99,,,0.00,Acu-Link.com,2013-03-09 21:02:00,
2013-03-09 16:18:00,63.9,30.2,29.96,SSW,202,2.2,-999.0,28,-99.99,,,0.00,Acu-Link.com,2013-03-09 21:18:00,
2013-03-09 16:33:00,65.7,28.9,29.96,WSW,247,2.7,-999.0,25,-99.99,,,0.00,Acu-Link.com,2013-03-09 21:33:00,
2013-03-09 16:48:00,64.4,32.3,29.96,SW,225,1.7,-999.0,30,-99.99,,,0.00,Acu-Link.com,2013-03-09 21:48:00,
2013-03-09 17:03:00,64.0,31.1,29.96,SSW,202,2.2,-999.0,29,-99.99,,,0.00,Acu-Link.com,2013-03-09 22:03:00,
2013-03-09 17:18:00,63.5,31.5,29.96,SSW,202,2.2,-999.0,30,-99.99,,,0.00,Acu-Link.com,2013-03-09 22:18:00,
2013-03-09 17:34:00,61.3,31.2,29.96,SSW,202,3.2,-999.0,32,-99.99,,,0.00,Acu-Link.com,2013-03-09 22:34:00,
2013-03-09 17:49:00,61.0,32.4,29.95,SE,135,3.7,-999.0,34,-99.99,,,0.00,Acu-Link.com,2013-03-09 22:49:00,
2013-03-09 18:04:00,60.6,32.8,29.95,SW,225,1.7,-999.0,35,-99.99,,,0.00,Acu-Link.com,2013-03-09 23:04:00,
2013-03-09 18:19:00,60.1,33.1,29.95,SE,135,0.0,-999.0,36,-99.99,,,0.00,Acu-Link.com,2013-03-09 23:19:00,
2013-03-09 18:35:00,59.0,34.7,29.95,SSW,202,0.0,-999.0,40,-99.99,,,0.00,Acu-Link.com,2013-03-09 23:35:00,
2013-03-09 18:50:00,57.6,34.7,29.96,West,270,1.1,-999.0,42,-99.99,,,0.00,Acu-Link.com,2013-03-09 23:50:00,
2013-03-09 19:05:00,56.7,34.5,29.96,SSW,202,2.2,-999.0,43,-99.99,,,0.00,Acu-Link.com,2013-03-10 00:05:00,
2013-03-09 19:21:00,55.6,33.5,29.96,SW,225,0.0,-999.0,43,-99.99,,,0.00,Acu-Link.com,2013-03-10 00:21:00,
2013-03-09 19:36:00,54.9,33.4,29.96,WNW,292,2.7,-999.0,44,-99.99,,,0.00,Acu-Link.com,2013-03-10 00:36:00,
2013-03-09 19:51:00,54.5,33.6,29.96,WSW,247,0.0,-999.0,45,-99.99,,,0.00,Acu-Link.com,2013-03-10 00:51:00,
2013-03-09 20:06:00,53.8,33.5,29.97,WSW,247,0.0,-999.0,46,-99.99,,,0.00,Acu-Link.com,2013-03-10 01:06:00,
2013-03-09 20:22:00,53.6,33.3,29.97,WSW,247,0.0,-999.0,46,-99.99,,,0.00,Acu-Link.com,2013-03-10 01:22:00,
2013-03-09 20:37:00,53.2,34.5,29.96,WSW,247,0.0,-999.0,49,-99.99,,,0.00,Acu-Link.com,2013-03-10 01:37:00,
2013-03-09 20:52:00,52.7,34.6,29.96,West,270,0.0,-999.0,50,-99.99,,,0.00,Acu-Link.com,2013-03-10 01:52:00,
2013-03-09 21:08:00,51.6,35.0,29.95,SSE,157,0.0,-999.0,53,-99.99,,,0.00,Acu-Link.com,2013-03-10 02:08:00,
2013-03-09 21:23:00,51.1,35.0,29.96,WNW,292,0.0,-999.0,54,-99.99,,,0.00,Acu-Link.com,2013-03-10 02:23:00,
2013-03-09 21:38:00,50.0,34.9,29.95,ENE,67,0.0,-999.0,56,-99.99,,,0.00,Acu-Link.com,2013-03-10 02:38:00,
2013-03-09 21:54:00,48.7,36.7,29.95,ENE,67,0.0,-999.0,63,-99.99,,,0.00,Acu-Link.com,2013-03-10 02:54:00,
2013-03-09 22:09:00,48.2,36.2,29.96,ENE,67,0.0,-999.0,63,-99.99,,,0.00,Acu-Link.com,2013-03-10 03:09:00,
2013-03-09 22:24:00,47.7,36.9,29.95,ENE,67,0.0,-999.0,66,-99.99,,,0.00,Acu-Link.com,2013-03-10 03:24:00,
2013-03-09 22:39:00,46.8,36.8,29.96,ENE,67,0.0,-999.0,68,-99.99,,,0.00,Acu-Link.com,2013-03-10 03:39:00,
2013-03-09 22:55:00,46.4,37.2,29.95,ESE,112,0.0,-999.0,70,-99.99,,,0.00,Acu-Link.com,2013-03-10 03:55:00,
2013-03-09 23:10:00,45.5,35.6,29.95,NW,315,0.0,-999.0,68,-99.99,,,0.00,Acu-Link.com,2013-03-10 04:10:00,
2013-03-09 23:26:00,45.1,36.6,29.95,ESE,112,0.0,-999.0,72,-99.99,,,0.00,Acu-Link.com,2013-03-10 04:26:00,
2013-03-09 23:41:00,44.2,35.8,29.94,ESE,112,0.0,-999.0,72,-99.99,,,0.00,Acu-Link.com,2013-03-10 04:41:00,
2013-03-09 23:56:00,43.3,35.2,29.94,SW,225,0.0,-999.0,73,-99.99,,,0.00,Acu-Link.com,2013-03-10 04:56:00,